This is the latest recevied weather packets stored in our database for station/object OE9FWV-10. If no packets are shown the sender has not sent any weather packets the latest 10 day(s).
| Time | Temp. | Humidity | Pressure | Rain* | Wind** | Luminosity | Snow |
|---|---|---|---|---|---|---|---|
| 1777413440 | 25.56° C | 26% | 1020.4 hPa | - | - | - | - |
| 1777412540 | 25° C | 26% | 1020.6 hPa | - | - | - | - |
| 1777411640 | 25° C | 26% | 1020.6 hPa | - | - | - | - |
| 1777410740 | 25.56° C | 26% | 1020.6 hPa | - | - | - | - |
| 1777409840 | 25° C | 26% | 1020.6 hPa | - | - | - | - |
| 1777408941 | 25° C | 26% | 1020.9 hPa | - | - | - | - |
| 1777408040 | 25° C | 26% | 1020.7 hPa | - | - | - | - |
| 1777407140 | 25.56° C | 26% | 1020.7 hPa | - | - | - | - |
| 1777406239 | 25.56° C | 26% | 1020.6 hPa | - | - | - | - |
| 1777405339 | 25.56° C | 26% | 1020.7 hPa | - | - | - | - |
| 1777404439 | 25.56° C | 25% | 1020.6 hPa | - | - | - | - |
| 1777403539 | 25.56° C | 25% | 1020.5 hPa | - | - | - | - |
| 1777402639 | 25.56° C | 25% | 1020.2 hPa | - | - | - | - |
| 1777401739 | 25.56° C | 25% | 1020 hPa | - | - | - | - |
| 1777400839 | 25.56° C | 25% | 1019.9 hPa | - | - | - | - |
| 1777399938 | 26.11° C | 25% | 1019.8 hPa | - | - | - | - |
| 1777399038 | 26.11° C | 24% | 1019.7 hPa | - | - | - | - |
| 1777398138 | 26.67° C | 23% | 1019.4 hPa | - | - | - | - |
| 1777397238 | 27.22° C | 23% | 1018.9 hPa | - | - | - | - |
| 1777396338 | 27.78° C | 22% | 1018.6 hPa | - | - | - | - |
| 1777395438 | 28.33° C | 22% | 1018.2 hPa | - | - | - | - |
| 1777394538 | 28.33° C | 21% | 1017.9 hPa | - | - | - | - |
| 1777393638 | 28.89° C | 22% | 1017.8 hPa | - | - | - | - |
| 1777392738 | 28.89° C | 21% | 1017.6 hPa | - | - | - | - |
| 1777391838 | 28.89° C | 21% | 1017.4 hPa | - | - | - | - |
* Rain since midnight (hover to see other rain measurements)
** Current wind speed in m/s (hover to see current wind gust speed)